Location: Newark
(13.6797°N, 8.5297°E)
Time: 10:36:00
(UTC+00:00)

Transit 2A Rocket - All Passes

Search period start: 22 January 2020 00:00
Search period end: 01 February 2020 00:00
Orbit: 593 x 910 km, 66.7° (Epoch: 21 January)

Date Brightness Start Highest point End Pass type
(mag) Time Alt. Az. Time Alt. Az. Time Alt. Az.
22 Jan - 04:26:14 10° SSW 04:30:47 67° WNW 04:35:04 10° NNE visible
22 Jan - 15:04:46 10° N 15:09:59 60° ENE 15:15:40 10° SSE daylight
23 Jan - 03:43:52 10° S 03:48:19 50° ESE 03:52:31 10° NE visible
23 Jan - 14:22:53 10° N 14:27:30 30° ENE 14:32:25 10° SE daylight
23 Jan - 16:05:48 10° WNW 16:09:51 21° WSW 16:14:08 10° SSW daylight
24 Jan - 03:02:20 10° SSE 03:05:51 22° ESE 03:09:13 10° ENE night (unlit)
24 Jan - 04:45:17 10° WSW 04:48:09 17° WNW 04:50:56 10° NNW visible
24 Jan - 13:41:57 10° NNE 13:44:57 15° ENE 13:48:03 10° E daylight
24 Jan - 15:22:18 10° NW 15:27:22 42° WSW 15:32:50 10° S daylight
25 Jan - 04:01:26 10° SW 04:05:37 37° WNW 04:09:38 10° N night (unlit)
25 Jan - 14:39:31 10° NNW 14:44:52 86° WSW 14:50:42 10° SSE daylight
26 Jan - 03:18:35 10° SSW 03:23:09 90° WNW 03:27:29 10° NNE night (unlit)
26 Jan - 13:57:16 10° N 14:02:24 47° ENE 14:07:56 10° SE daylight
26 Jan - 15:42:09 10° W 15:44:44 13° WSW 15:47:25 10° SW daylight
27 Jan - 02:36:29 10° S 02:40:41 37° ESE 02:44:41 10° NE night (unlit)
27 Jan - 13:15:38 10° NNE 13:19:53 24° ENE 13:24:23 10° ESE daylight
27 Jan - 14:57:43 10° NW 15:02:16 27° WSW 15:07:06 10° SSW daylight
28 Jan - 01:55:23 10° SSE 01:58:14 16° ESE 02:00:59 10° ENE night (unlit)
28 Jan - 03:37:02 10° WSW 03:40:29 22° WNW 03:43:50 10° NNW night (unlit)
28 Jan - 12:35:27 10° NE 12:37:18 12° ENE 12:39:11 10° E daylight
28 Jan - 14:14:30 10° NNW 14:19:46 55° WSW 14:25:28 10° S daylight
29 Jan - 02:53:37 10° SW 02:57:59 50° WNW 03:02:10 10° N night (unlit)
29 Jan - 13:31:54 10° NNW 13:37:17 75° ENE 13:43:07 10° SSE daylight
30 Jan - 02:11:01 10° SSW 02:15:31 67° ESE 02:19:48 10° NNE night (unlit)
30 Jan - 12:49:50 10° N 12:54:48 37° ENE 13:00:06 10° SE daylight
30 Jan - 14:33:34 10° WNW 14:37:09 17° WSW 14:40:53 10° SSW daylight
31 Jan - 01:29:12 10° SSE 01:33:04 28° ESE 01:36:45 10° NE night (unlit)
31 Jan - 03:13:24 10° W 03:15:23 13° WNW 03:17:21 10° NW night (unlit)
31 Jan - 12:08:29 10° NNE 12:12:16 19° ENE 12:16:13 10° ESE daylight
31 Jan - 13:49:44 10° NW 13:54:40 35° WSW 13:59:56 10° S daylight
